This is the latest recevied weather packets stored in our database for station/object HB9FHL-13. If no packets are shown the sender has not sent any weather packets the latest 10 day(s).
| Time | Temp. | Humidity | Pressure | Rain* | Wind** | Luminosity | Snow |
|---|---|---|---|---|---|---|---|
| 1777795997 | 17.22° C | - | 1020.5 hPa | 0 mm | - | - | - |
| 1777795696 | 16.67° C | - | 1020.5 hPa | 0 mm | - | - | - |
| 1777795396 | 16.67° C | - | 1018.6 hPa | 0 mm | - | - | - |
| 1777795160 | 16.67° C | - | 1017.6 hPa | 0 mm | - | - | - |
| 1777795095 | 16.67° C | - | 1017.6 hPa | 0 mm | - | - | - |
| 1777794793 | 16.67° C | - | 1016.1 hPa | 0 mm | - | - | - |
| 1777794492 | 17.22° C | - | 1019.2 hPa | 0 mm | - | - | - |
| 1777794192 | 16.67° C | - | 1021.1 hPa | 0 mm | - | - | - |
| 1777793892 | 17.22° C | - | 1017.3 hPa | 0 mm | - | - | - |
| 1777793591 | 16.11° C | - | 1019.3 hPa | 0 mm | - | - | - |
| 1777793290 | 16.11° C | - | 1015 hPa | 0 mm | - | - | - |
| 1777792990 | 15.56° C | - | 1016.7 hPa | 0 mm | - | - | - |
| 1777792814 | 16.11° C | - | 1017.4 hPa | 0 mm | - | - | - |
| 1777792690 | 16.11° C | - | 1017.4 hPa | 0 mm | - | - | - |
| 1777792389 | 16.67° C | - | 1019.6 hPa | 0 mm | - | - | - |
| 1777792089 | 15.56° C | - | 1015.9 hPa | 0 mm | - | - | - |
| 1777791788 | 15° C | - | 1017.5 hPa | 0 mm | - | - | - |
| 1777791488 | 15.56° C | - | 1019.4 hPa | 0 mm | - | - | - |
| 1777791187 | 14.44° C | - | 1016.3 hPa | 0 mm | - | - | - |
| 1777790887 | 16.11° C | - | 1014.3 hPa | 0 mm | - | - | - |
| 1777790586 | 15.56° C | - | 1021.3 hPa | 0 mm | - | - | - |
| 1777789982 | 16.11° C | - | 1017.6 hPa | 0 mm | - | - | - |
| 1777789682 | 16.67° C | - | 1017.2 hPa | 0 mm | - | - | - |
| 1777789381 | 16.11° C | - | 1021.2 hPa | 0 mm | - | - | - |
| 1777789081 | 16.11° C | - | 1020.3 hPa | 0 mm | - | - | - |
* Rain since midnight (hover to see other rain measurements)
** Current wind speed in m/s (hover to see current wind gust speed)